Location: Newark
(51.3318°N, 0.0053°E)
Time: 21:08:43
(UTC+00:00)

M-CUBED/EXP-1 PRIME - Pass Details

Date: 30 June 2022
Orbit: 422 x 631 km, 101.7° (Epoch: 11 August)

Event Time Altitude Azimuth Distance (km) Brightness Sun altitude
Exits shadow 00:19:56 16° 124° (SE) 1,228 ? -15.4°
Maximum altitude 00:22:10 37° 62° (ENE) 706 ? -15.4°
Drops below altitude 10° 00:25:18 10° 354° (N) 1,594 ? -15.3°
Sets 00:27:29 0° 346° (NNW) 2,502 ? -15.3°
